Temperature
22 20 20 19 19 19 19 19 19 19 18 18 18 18 17 17 17 17 17 17 17 17 17 17 17 17 17 17 17 17 16 17 17 17 17 17 17 17 17 17 17 16 16
22 20 20 19 19 19 19 19 19 19 18 18 18 18 17 17 17 17 17 17 17 17 17 17 17 17 17 17 17 17 17 17 17 17 18 18 18 17 17 17 17 17 16
22 21 20 19 19 19 19 19 18 18 18 18 18 17 17 17 17 17 17 17 17 17 17 17 17 17 17 17 17 17 17 17 17 17 18 18 19 19 18 17 17 17 17
23 22 21 20 19 19 19 19 18 18 18 18 17 17 17 17 17 17 17 17 17 17 17 17 17 17 17 17 17 17 17 17 17 17 17 17 18 18 19 18 17 17 17
23 22 21 20 20 19 19 18 18 18 18 18 18 17 17 17 17 17 17 17 17 17 17 17 17 17 17 17 17 16 17 17 17 17 17 17 17 17 18 19 18 18 17
23 22 21 20 19 19 18 18 18 18 18 18 18 17 17 17 17 17 17 17 17 17 17 17 17 17 17 17 17 16 17 17 17 17 17 17 17 18 18 18 18 18 18
22 21 20 20 19 18 18 18 18 18 18 18 17 17 17 17 17 17 17 17 17 17 17 17 17 17 17 17 17 16 16 16 16 17 17 17 17 17 18 18 18 18 18
22 21 20 20 19 19 18 18 18 18 18 17 17 17 17 17 16 17 17 17 17 17 17 17 17 17 17 16 17 16 16 16 16 16 16 16 17 17 17 17 18 18 18
22 21 20 20 19 19 18 18 18 18 17 17 17 17 17 16 16 17 17 17 17 17 17 16 16 16 16 16 16 16 16 16 16 16 16 16 16 16 17 17 17 17 18
22 21 20 20 19 18 18 18 18 18 17 17 17 17 17 17 16 16 16 17 17 16 16 16 16 16 16 16 17 16 16 16 16 16 16 16 16 16 16 16 16 16 17
22 21 20 19 19 18 18 18 17 17 17 17 17 17 16 16 16 16 16 16 17 16 16 16 16 16 16 16 16 16 16 16 16 16 16 16 16 16 16 16 16 16 16
21 20 19 19 18 18 17 17 17 17 17 17 17 17 17 16 16 16 16 16 16 16 16 16 16 16 16 16 16 16 16 16 16 16 16 16 16 16 16 16 16 16 16
20 20 19 18 18 18 17 17 17 17 17 17 16 16 16 16 16 16 16 16 16 16 16 16 16 16 16 16 16 16 16 16 15 15 15 15 15 15 16 15 15 15 15
19 19 18 18 18 17 17 17 17 16 16 16 16 16 16 16 16 16 16 16 16 16 16 16 16 16 16 16 15 15 15 15 15 15 15 15 15 15 15 15 15 15 15
19 19 18 18 17 17 17 17 16 16 16 16 16 16 16 16 16 16 16 16 16 16 16 16 16 16 15 15 15 15 15 15 15 15 15 15 15 15 15 15 15 14 14
19 18 18 17 17 17 16 16 16 16 16 16 16 16 15 15 15 15 15 15 15 15 15 15 15 15 15 15 15 15 15 15 15 15 15 15 15 15 14 14 14 14 14
18 18 17 17 17 16 16 16 16 16 16 16 15 15 15 15 15 15 15 15 15 15 15 15 15 15 15 15 15 15 15 15 14 14 14 14 14 14 14 14 14 14 14
17 17 17 16 16 16 16 16 16 16 16 15 15 15 15 15 15 15 15 15 15 15 15 14 14 14 14 14 14 14 14 14 14 14 14 14 14 13 13 13 13 13 13
16 16 16 16 16 16 16 16 15 15 15 15 15 15 15 15 15 14 14 14 14 14 14 14 14 14 14 14 14 14 14 13 13 13 13 13 13 13 13 13 12 12 12
16 15 15 15 15 15 15 15 15 15 15 15 15 15 15 14 14 14 14 14 14 14 14 13 13 13 13 13 13 13 13 13 12 12 12 12 12 12 12 12 12 11 11
15 15 15 15 15 15 15 15 14 14 14 14 14 14 14 14 14 14 14 14 13 13 13 13 13 13 13 12 12 12 12 12 12 12 11 11 11 11 11 11 11 11 10
14 14 14 14 14 14 14 14 14 14 14 14 14 14 14 13 13 13 13 13 13 13 12 12 12 12 12 12 12 12 12 11 11 11 10 10 10 10 10 10 10 10 9
14 14 14 14 14 14 14 14 13 13 13 13 13 13 13 13 13 13 12 12 12 12 12 11 11 11 11 11 11 11 11 11 10 10 9 9 9 9 9 9 9 9 8
13 13 13 13 13 13 13 13 13 13 13 13 13 13 12 12 12 12 12 12 11 11 11 11 11 10 10 10 10 9 9 9 9 9 9 8 8 8 8 8 8 8 8
12 12 12 12 12 12 12 12 12 12 13 12 12 12 12 12 12 12 11 11 11 11 11 10 10 10 9 9 9 9 9 8 8 8 8 8 8 8 7 7 7 7 7
12 12 12 12 12 12 12 12 12 12 12 12 11 11 11 11 11 11 10 10 10 10 10 10 9 9 9 8 8 8 8 8 8 8 8 7 7 7 7 7 6 6 6
Wind_Speed
10 11 12 13 13 13 13 14 14 13 11 10 10 10 10 9 9 9 10 11 11 11 9 7 7 7 7 6 7 5 7 6 4 4 4 4 5 4 4 5 4 6 6
10 12 13 13 14 14 14 13 13 13 13 11 9 8 9 9 9 8 9 10 11 11 11 9 8 8 6 7 7 6 5 5 5 4 4 4 5 6 6 6 6 6 6
11 12 13 14 14 13 13 12 12 13 13 12 9 8 8 7 8 9 9 10 12 12 11 10 9 8 8 8 8 8 7 6 6 5 4 3 3 4 5 6 6 6 5
9 11 12 13 13 13 12 12 12 13 13 12 12 13 11 11 11 10 9 10 12 12 12 11 10 9 9 7 9 9 7 7 6 5 5 4 3 3 3 6 6 6 7
8 9 11 11 11 12 11 11 11 12 12 13 13 12 11 10 8 9 9 9 10 11 12 11 10 9 8 8 8 7 8 7 7 6 5 5 4 6 5 3 4 5 6
8 8 8 9 9 10 10 10 11 12 12 12 13 13 13 11 11 11 11 9 8 9 12 11 10 10 9 9 9 8 9 8 7 7 6 5 5 5 5 4 5 4 4
8 8 9 9 9 9 10 10 11 11 12 13 13 13 13 13 12 12 12 10 9 9 11 11 10 10 9 9 9 9 9 9 8 8 7 6 6 5 5 5 5 4 4
8 8 8 8 8 8 9 10 10 11 11 12 12 12 12 10 10 11 10 11 10 10 10 11 11 11 11 10 9 9 9 8 8 8 7 6 6 6 6 5 5 5 5
9 9 8 8 7 7 8 8 8 9 10 11 11 11 11 11 11 10 10 9 9 9 11 11 11 11 11 10 10 9 9 8 9 8 8 8 6 6 6 6 6 6 6
9 8 7 6 6 6 6 6 7 8 8 9 10 10 11 11 11 11 11 10 10 9 10 10 11 11 11 10 10 8 8 8 8 6 7 7 7 6 6 6 6 6 7
8 8 6 6 6 5 5 5 5 6 7 7 8 8 9 9 10 10 11 10 9 9 10 10 10 11 10 10 9 9 9 9 8 8 8 9 8 6 6 6 6 6 6
7 7 7 6 5 5 5 4 4 5 5 6 6 6 7 7 8 9 9 10 10 10 10 10 10 10 10 9 9 9 9 9 9 8 8 8 7 7 7 6 7 6 6
7 7 6 5 5 5 4 4 4 3 4 4 5 4 5 5 6 7 7 8 9 9 9 9 9 9 8 8 8 8 7 7 7 6 6 6 6 6 6 6 6 6 6
7 7 6 5 5 5 5 4 4 3 4 4 4 4 4 4 4 5 5 6 7 7 8 8 7 7 7 7 7 7 6 6 5 4 4 4 4 5 5 5 5 6 6
8 7 6 5 4 5 4 4 4 3 4 4 5 4 4 4 4 5 5 5 5 6 6 6 6 5 5 5 5 5 5 5 4 4 3 3 2 1 2 3 4 5 5
7 6 6 5 4 4 4 4 3 4 4 4 5 4 5 5 5 6 6 6 5 5 5 6 5 5 3 5 4 3 4 4 4 4 3 3 3 3 3 1 1 2 4
6 6 5 5 4 4 4 4 4 4 5 4 5 5 6 6 6 6 6 6 5 5 5 5 5 5 5 7 7 5 3 3 2 2 2 2 2 4 4 4 4 1 2
5 5 5 4 4 4 4 4 5 5 5 4 4 5 6 7 6 6 6 6 6 6 6 6 6 6 7 8 7 6 4 3 3 2 1 1 1 1 1 2 2 1 0
4 4 4 5 4 4 4 5 5 5 5 5 5 5 6 7 7 7 6 6 7 7 7 6 7 7 7 8 6 5 5 5 4 4 5 3 1 3 1 2 2 2 2
5 5 5 5 5 4 4 5 5 6 5 5 5 5 6 7 8 8 7 6 7 7 7 8 8 8 8 9 7 4 5 5 5 6 7 10 8 6 4 2 2 3 3
6 6 6 5 5 4 5 6 6 5 5 5 5 5 6 6 7 7 7 7 7 8 9 10 9 9 9 9 10 7 5 5 6 6 6 7 10 11 10 7 6 4 2
7 7 6 6 5 5 6 7 6 5 6 6 6 6 6 5 6 7 6 7 8 9 9 9 9 8 8 9 10 11 9 7 8 7 6 7 10 11 11 8 7 4 2
6 6 7 7 6 6 7 8 6 6 7 8 7 7 7 6 6 6 7 7 7 7 7 7 7 7 7 9 11 12 12 11 9 8 10 8 7 8 9 9 6 4 4
7 7 8 8 7 7 7 7 6 7 9 9 8 8 8 7 7 6 6 6 6 7 7 7 7 8 7 6 6 7 8 10 9 8 9 8 7 6 6 5 5 5 5
7 8 8 9 9 8 8 8 7 8 10 10 9 9 10 11 11 11 10 9 8 6 6 7 7 8 8 7 8 7 6 6 5 5 5 5 5 6 6 5 5 5 5
9 9 10 10 10 9 10 9 8 9 10 10 9 8 9 9 10 12 13 20 17 19 19 16 12 11 11 10 12 12 10 7 4 4 6 6 6 6 5 5 5 6 6
Wind_Direction
186 187 188 190 188 188 189 190 190 187 185 187 190 190 192 194 194 194 191 192 197 196 202 205 187 206 201 197 196 196 189 197 191 193 189 191 205 204 199 212 212 202 203
188 187 188 191 192 191 191 190 193 191 191 191 194 197 195 196 196 196 190 198 201 202 202 208 205 205 201 200 202 202 208 197 193 211 210 207 197 210 209 206 213 216 205
197 192 192 193 193 192 191 192 195 198 197 191 190 189 190 195 195 196 196 202 204 206 213 206 213 209 210 202 204 203 211 209 205 221 235 241 225 192 188 208 216 219 223
197 192 191 191 194 192 189 191 193 198 197 193 194 193 194 197 198 195 195 197 204 207 209 210 212 214 216 205 210 209 215 219 215 210 238 268 316 268 202 197 197 208 221
190 188 186 187 191 189 189 194 194 197 196 195 196 197 201 202 196 194 194 199 203 209 210 209 211 213 216 211 218 210 220 218 226 222 216 222 230 247 260 235 209 203 208
173 173 170 174 184 186 189 193 198 199 198 199 200 202 204 202 197 196 195 198 202 208 210 209 209 212 214 211 215 216 216 224 228 234 231 225 229 233 240 243 236 227 214
162 160 159 163 173 182 187 193 196 200 201 202 203 206 208 205 205 203 200 200 203 205 207 208 208 210 212 214 214 213 219 217 219 226 231 235 242 250 252 255 253 252 229
152 153 154 161 171 180 188 191 195 200 201 204 206 207 208 209 210 209 207 205 208 208 205 206 207 210 211 213 211 213 212 212 217 225 229 236 238 239 244 255 263 258 246
147 147 151 159 165 175 184 190 195 200 203 203 203 204 207 212 213 211 212 212 211 208 205 207 206 208 210 212 208 215 212 210 216 218 215 231 234 237 242 249 255 265 267
145 144 148 151 155 164 172 181 190 195 197 200 202 202 205 209 211 212 210 209 209 208 202 206 207 206 208 208 210 210 211 213 216 224 227 233 236 233 239 244 248 256 268
141 140 140 139 143 149 157 171 178 182 188 195 198 199 203 208 210 210 210 206 205 203 202 204 205 204 205 206 207 215 207 214 217 222 224 229 240 236 236 236 241 244 252
128 128 130 132 139 145 152 162 169 174 177 183 191 194 199 203 206 206 205 203 200 200 200 200 202 204 204 203 204 212 211 216 219 223 225 231 229 230 241 242 245 247 248
125 125 123 124 129 139 142 143 151 158 161 167 178 184 191 192 197 197 196 197 196 196 197 197 199 200 200 203 207 209 214 216 219 222 223 230 231 232 238 241 249 250 246
130 125 121 117 114 124 131 136 139 147 154 153 158 165 173 179 182 182 182 185 185 183 185 188 191 193 199 204 205 207 212 215 212 210 215 224 227 235 242 244 253 257 259
136 131 124 115 111 110 116 120 129 143 149 149 144 148 147 148 149 152 154 157 162 171 174 174 173 178 189 198 191 195 197 194 194 191 196 201 200 211 242 258 257 254 255
134 131 125 118 113 108 109 113 124 139 140 139 140 133 131 134 138 139 141 142 147 155 153 154 152 147 150 111 121 172 184 186 188 187 190 192 193 193 190 221 345 321 267
135 134 128 122 119 118 114 113 120 128 130 133 135 135 133 127 128 130 127 125 125 126 125 125 124 117 95 93 102 109 147 162 177 190 197 210 199 196 199 180 171 109 18
132 134 131 124 123 120 120 121 125 128 129 133 135 134 130 127 123 119 121 121 116 111 106 104 106 100 86 88 103 112 120 110 96 89 122 190 258 232 196 196 177 168 96
115 123 123 120 115 114 119 124 125 127 126 129 133 135 135 133 131 126 121 120 117 112 107 104 99 96 83 78 93 115 115 99 82 64 48 43 64 42 39 151 148 137 112
100 111 112 108 105 107 117 121 124 123 122 123 127 130 133 133 132 130 128 123 121 118 112 100 93 90 84 68 72 102 112 105 95 78 62 54 52 43 40 99 111 102 81
95 101 103 98 93 100 113 111 110 111 112 112 112 115 123 129 132 130 127 125 121 113 105 99 91 84 78 72 61 62 95 104 98 85 72 61 58 58 54 61 75 67 37
96 100 99 89 81 87 105 103 100 101 103 102 102 104 109 116 121 121 122 123 120 114 110 105 96 84 77 71 69 65 67 79 93 88 83 77 73 71 64 64 53 32 11
94 98 98 92 82 79 90 96 94 100 101 99 97 97 98 101 107 115 123 121 117 116 114 111 105 96 87 81 78 77 75 75 86 86 84 83 91 97 81 68 49 40 46
95 99 99 93 83 75 77 83 88 95 100 98 98 98 98 93 84 80 87 98 103 110 112 108 104 98 86 78 85 95 96 101 99 100 106 103 83 83 82 81 59 50 41
98 96 95 93 87 84 83 84 92 99 99 98 96 94 93 94 85 74 60 69 60 63 91 100 100 99 90 61 49 68 76 77 84 95 93 84 79 70 64 60 52 42 38
100 97 94 92 88 86 84 81 87 97 102 101 99 99 100 100 100 97 82 61 65 61 60 59 76 80 82 82 73 71 68 59 36 68 80 71 63 56 51 45 46 41 31
Height
1504 1506 1508 1510 1512 1514 1516 1518 1521 1523 1527 1530 1533 1535 1539 1544 1547 1550 1553 1555 1558 1561 1563 1567 1568 1570 1572 1574 1575 1577 1578 1580 1581 1583 1584 1584 1585 1585 1586 1587 1587 1588 1588
1501 1503 1504 1507 1509 1510 1513 1516 1518 1521 1523 1526 1530 1534 1538 1541 1544 1547 1550 1553 1556 1559 1562 1564 1566 1568 1570 1571 1573 1575 1577 1579 1580 1581 1582 1583 1584 1583 1584 1585 1585 1586 1587
1497 1499 1501 1503 1506 1508 1510 1513 1515 1518 1521 1523 1527 1531 1534 1537 1541 1544 1547 1550 1553 1556 1559 1562 1564 1566 1568 1570 1571 1573 1575 1577 1579 1580 1581 1581 1581 1582 1583 1583 1584 1584 1585
1494 1497 1499 1500 1502 1504 1507 1510 1512 1515 1518 1521 1523 1526 1530 1533 1537 1541 1544 1548 1551 1554 1556 1559 1561 1563 1566 1568 1569 1572 1573 1575 1576 1578 1578 1580 1580 1580 1580 1581 1581 1582 1582
1492 1495 1497 1498 1500 1502 1505 1507 1510 1512 1515 1518 1520 1523 1527 1531 1535 1538 1541 1544 1548 1550 1553 1556 1558 1561 1563 1565 1567 1569 1571 1572 1574 1576 1577 1578 1578 1579 1579 1579 1580 1580 1581
1491 1494 1495 1497 1499 1501 1503 1505 1507 1510 1512 1515 1518 1520 1524 1527 1531 1534 1538 1541 1544 1547 1550 1552 1555 1558 1560 1562 1564 1566 1568 1570 1571 1573 1574 1576 1576 1577 1578 1578 1578 1578 1579
1490 1493 1495 1496 1498 1500 1502 1504 1505 1507 1510 1512 1514 1517 1520 1524 1527 1531 1534 1537 1540 1543 1546 1549 1552 1554 1557 1559 1561 1563 1565 1566 1568 1569 1571 1573 1574 1575 1576 1576 1576 1576 1577
1490 1492 1494 1496 1498 1499 1501 1502 1503 1505 1507 1509 1511 1514 1517 1520 1523 1527 1531 1534 1537 1540 1543 1545 1548 1551 1553 1556 1558 1560 1562 1563 1564 1566 1568 1570 1571 1572 1573 1574 1574 1574 1574
1490 1492 1494 1496 1498 1499 1500 1501 1502 1503 1505 1506 1509 1511 1513 1516 1519 1523 1527 1530 1533 1536 1539 1542 1545 1547 1550 1552 1554 1557 1558 1560 1562 1563 1564 1566 1568 1569 1570 1571 1572 1573 1572
1490 1493 1495 1496 1498 1498 1499 1500 1501 1501 1502 1504 1506 1507 1510 1513 1516 1519 1523 1526 1529 1532 1535 1538 1541 1543 1546 1548 1551 1553 1555 1556 1558 1560 1561 1563 1565 1566 1567 1568 1569 1569 1570
1490 1493 1495 1496 1497 1498 1498 1499 1499 1500 1500 1501 1503 1505 1507 1510 1513 1516 1519 1522 1525 1528 1531 1534 1537 1540 1542 1545 1547 1549 1551 1553 1554 1556 1558 1559 1560 1562 1563 1564 1565 1565 1566
1491 1493 1495 1496 1497 1498 1498 1499 1499 1499 1499 1500 1502 1504 1506 1508 1510 1512 1515 1519 1522 1524 1527 1530 1533 1536 1539 1541 1543 1545 1548 1549 1551 1553 1554 1556 1557 1558 1559 1560 1561 1561 1562
1492 1494 1495 1496 1497 1498 1498 1499 1499 1499 1499 1500 1501 1502 1504 1505 1507 1509 1512 1515 1518 1521 1524 1527 1530 1533 1535 1537 1539 1542 1544 1546 1547 1549 1550 1552 1553 1554 1555 1556 1557 1557 1558
1492 1494 1495 1496 1497 1498 1498 1499 1499 1499 1500 1500 1501 1501 1502 1503 1505 1507 1510 1513 1516 1518 1521 1524 1527 1529 1531 1534 1536 1538 1540 1542 1544 1545 1546 1548 1549 1550 1551 1552 1552 1553 1553
1493 1494 1495 1496 1497 1498 1498 1498 1499 1499 1500 1500 1501 1501 1502 1503 1505 1507 1509 1512 1514 1517 1519 1521 1524 1526 1528 1530 1532 1534 1537 1538 1540 1541 1543 1544 1545 1547 1548 1549 1549 1550 1550
1492 1494 1495 1496 1497 1498 1498 1499 1499 1499 1500 1500 1501 1502 1502 1504 1505 1507 1509 1511 1514 1516 1518 1520 1522 1524 1526 1528 1529 1531 1533 1535 1536 1538 1539 1541 1542 1543 1544 1545 1546 1547 1547
1492 1494 1495 1496 1497 1498 1498 1499 1499 1500 1500 1500 1501 1502 1503 1505 1506 1508 1510 1511 1513 1515 1517 1519 1521 1523 1525 1526 1527 1529 1530 1532 1533 1535 1536 1538 1539 1540 1541 1541 1542 1543 1543
1492 1493 1495 1496 1497 1498 1498 1499 1499 1500 1500 1501 1501 1502 1504 1505 1507 1508 1510 1512 1514 1515 1517 1519 1520 1522 1524 1525 1526 1528 1529 1530 1531 1532 1533 1535 1536 1536 1537 1538 1539 1539 1539
1492 1493 1494 1495 1496 1497 1498 1498 1499 1500 1500 1501 1502 1503 1505 1506 1508 1509 1510 1512 1514 1515 1517 1519 1521 1522 1523 1525 1526 1527 1528 1528 1529 1531 1531 1532 1533 1534 1534 1535 1536 1536 1536
1491 1493 1494 1495 1496 1496 1497 1498 1498 1500 1500 1501 1502 1504 1505 1507 1508 1510 1511 1513 1514 1516 1518 1519 1521 1523 1524 1525 1526 1527 1528 1528 1529 1530 1530 1530 1531 1531 1532 1533 1533 1533 1534
1491 1492 1493 1494 1495 1496 1497 1497 1498 1499 1500 1501 1503 1504 1506 1507 1509 1511 1512 1514 1515 1517 1518 1520 1521 1523 1524 1525 1526 1527 1528 1528 1529 1529 1529 1530 1530 1530 1530 1531 1531 1531 1531
1491 1492 1493 1494 1495 1496 1496 1497 1498 1499 1500 1501 1503 1505 1506 1508 1510 1511 1513 1514 1516 1517 1519 1520 1521 1523 1524 1525 1526 1527 1528 1528 1529 1529 1529 1530 1530 1530 1530 1530 1530 1530 1531
1492 1493 1493 1494 1495 1496 1497 1497 1498 1500 1501 1502 1503 1505 1507 1508 1510 1512 1513 1515 1516 1518 1520 1521 1522 1523 1524 1526 1527 1528 1528 1528 1528 1529 1529 1530 1531 1531 1531 1530 1530 1531 1531
1492 1493 1494 1495 1496 1497 1498 1498 1500 1501 1502 1503 1504 1506 1507 1509 1510 1512 1514 1516 1518 1519 1521 1522 1523 1524 1525 1527 1528 1529 1529 1529 1529 1530 1530 1531 1532 1532 1531 1531 1531 1531 1530
1492 1493 1495 1496 1497 1498 1499 1500 1501 1503 1503 1504 1506 1507 1509 1510 1511 1513 1514 1516 1518 1520 1521 1522 1524 1525 1526 1527 1529 1529 1530 1531 1531 1531 1532 1533 1533 1533 1533 1533 1532 1532 1531
1493 1495 1496 1497 1499 1500 1501 1502 1504 1505 1505 1506 1508 1510 1511 1512 1513 1514 1516 1518 1520 1521 1522 1523 1524 1525 1527 1528 1530 1530 1531 1531 1532 1533 1534 1534 1534 1534 1534 1534 1533 1532 1531